DW9665 Sarajevo BA current weather conditions

sailwx.info

Wind from 180

Air temperature 10.0° C
Dewpoint 4.2° C

Last reported at 2016-Oct-01 00:47 UTC.
Time now 2016-Oct-01 01:30 UTC

Location: N 43°50' E 018°21'.
View on Google Maps.

See reports from other nearby stations

  
Tides and Currents Weather Stations Pressure Air Temp Water Temp Dewpoint Dewpoint Depression Visibility Wind Speed Wind Dir Waves Ship Positions
date/time (UTC)wind fromknots sea level pressurealtimeterstation pressurevisibilityair tempwater tempwave heightnotes
2016-Oct-01 00:47 180 10.0
2016-Oct-01 00:32 180 10.6
2016-Oct-01 00:17 180 10.6
2016-Oct-01 00:02 270 10.6
2016-Sep-30 23:47 270 11.1
2016-Sep-30 23:32 270 11.1
2016-Sep-30 23:17 270 11.7
2016-Sep-30 23:02 270 11.7
2016-Sep-30 22:47 270 11.7
2016-Sep-30 22:32 270 12.2
2016-Sep-30 22:17 270 12.2
2016-Sep-30 22:02 270 0 gusting 0 12.8
2016-Sep-30 21:47 270 12.8
2016-Sep-30 21:32 270 12.8
2016-Sep-30 21:17 270 12.8
2016-Sep-30 20:47 270 13.3
2016-Sep-30 20:32 180 13.3
2016-Sep-30 20:17 270 13.9
2016-Sep-30 20:02 270 14.4
2016-Sep-30 19:47 270 14.4
2016-Sep-30 19:32 112 15.0
2016-Sep-30 19:17 180 15.0
2016-Sep-30 19:02 180 15.6
2016-Sep-30 18:47 045 16.1
2016-Sep-30 18:34 270 16.7
2016-Sep-30 18:02 045 1 gusting 3 17.2
2016-Sep-30 17:47 022 1 gusting 2 17.2
2016-Sep-30 17:17 180 18.3
2016-Sep-30 17:02 180 18.9
2016-Sep-30 16:47 180 19.4
2016-Sep-30 16:32 338 1 gusting 4 21.1
2016-Sep-30 16:17 270 2 gusting 3 21.7
2016-Sep-30 16:02 180 2 gusting 11 22.2
2016-Sep-30 15:47 270 3 gusting 8 22.8
2016-Sep-30 15:32 022 3 gusting 6 22.8
2016-Sep-30 15:17 180 5 gusting 6 23.3
2016-Sep-30 15:02 270 5 gusting 6 23.9
2016-Sep-30 14:47 180 1 gusting 6 23.9
2016-Sep-30 14:32 270 5 gusting 4 24.4
2016-Sep-30 14:17 180 1 gusting 3 25.0
2016-Sep-30 14:02 180 0 gusting 1 25.6
2016-Sep-30 13:47 158 25.0
2016-Sep-30 13:32 158 24.4
2016-Sep-30 13:17 292 0 gusting 2 23.9
2016-Sep-30 13:02 292 0 gusting 2 24.4
2016-Sep-30 12:47 270 2 gusting 3 23.9
2016-Sep-30 12:32 270 1 gusting 5 22.8
2016-Sep-30 12:17 180 1 gusting 2 23.3
2016-Sep-30 12:02 292 23.3
2016-Sep-30 11:47 158 22.2
2016-Sep-30 11:32 270 1 gusting 2 22.2
2016-Sep-30 11:17 338 21.1
2016-Sep-30 11:02 112 20.6
2016-Sep-30 10:47 315 20.0
2016-Sep-30 10:32 292 18.9
2016-Sep-30 10:17 068 17.8
2016-Sep-30 10:02 270 0 gusting 2 16.7
2016-Sep-30 09:47 270 1 gusting 2 16.7
2016-Sep-30 09:32 270 0 gusting 2 15.6
2016-Sep-30 09:17 270 0 gusting 2 15.0
2016-Sep-30 09:02 180 1 gusting 1 13.9
2016-Sep-30 08:47 292 13.3
2016-Sep-30 08:32 270 12.8
2016-Sep-30 08:17 270 2 gusting 2 11.7
2016-Sep-30 08:02 270 11.1
2016-Sep-30 07:47 180 10.6
2016-Sep-30 07:32 270 10.0
2016-Sep-30 07:17 270 10.0
2016-Sep-30 07:02 338 0 gusting 1 10.6
2016-Sep-30 06:47 158 10.0
2016-Sep-30 06:32 135 0 gusting 1 10.0
2016-Sep-30 06:17 158 9.4
2016-Sep-30 06:02 158 8.3
2016-Sep-30 05:47 158 7.8
2016-Sep-30 05:32 158 6.7
2016-Sep-30 05:17 180 0 gusting 0 5.6
2016-Sep-30 05:02 180 0 5.6
2016-Sep-30 04:47 158 5.6
2016-Sep-30 04:32 180 6.1
2016-Sep-30 04:17 180 0 gusting 1 6.1
2016-Sep-30 04:02 180 6.1
2016-Sep-30 03:47 158 6.1
2016-Sep-30 03:32 158 6.1
2016-Sep-30 03:17 158 6.7
2016-Sep-30 03:02 158 6.7
2016-Sep-30 02:47 158 6.7
2016-Sep-30 02:32 158 7.2
2016-Sep-30 02:17 158 7.2
2016-Sep-30 02:02 158 7.8
2016-Sep-30 01:47 158 7.8
2016-Sep-30 01:32 158 0 gusting 2 7.8
2016-Sep-30 01:02 135 7.8
2016-Sep-30 00:47 135 7.8
2016-Sep-30 00:32 135 7.8
2016-Sep-30 00:17 135 8.3
2016-Sep-30 00:02 135 8.3
2016-Sep-29 23:47 135 8.9
2016-Sep-29 23:32 180 1 gusting 2 8.9
2016-Sep-29 23:17 180 8.9
2016-Sep-29 23:02 180 9.4
2016-Sep-29 22:47 180 0 gusting 1 9.4
2016-Sep-29 22:32 180 10.0
2016-Sep-29 22:17 180 10.0
2016-Sep-29 22:02 180 10.0
2016-Sep-29 21:47 180 10.0
2016-Sep-29 21:32 180 10.6
2016-Sep-29 21:17 180 10.6
2016-Sep-29 21:02 180 11.1
2016-Sep-29 20:47 180 11.7
2016-Sep-29 20:32 270 1 gusting 0 11.7
2016-Sep-29 20:17 270 12.2
2016-Sep-29 20:02 270 12.8
2016-Sep-29 19:47 135 12.8
2016-Sep-29 19:32 135 13.3
2016-Sep-29 19:17 13.3
2016-Sep-29 19:02 180 13.9
2016-Sep-29 18:32 292 15.0
2016-Sep-29 18:17 068 1 gusting 3 15.0
2016-Sep-29 18:02 068 0 gusting 0 15.0
2016-Sep-29 17:47 270 15.6
2016-Sep-29 17:32 270 16.1
2016-Sep-29 17:17 270 16.7
2016-Sep-29 17:02 338 0 gusting 2 17.8
2016-Sep-29 16:47 158 18.3
2016-Sep-29 16:32 158 19.4
2016-Sep-29 16:17 158 2 gusting 3 20.0
2016-Sep-29 16:02 158 1 gusting 3 20.6
2016-Sep-29 15:47 158 0 gusting 3 22.2
2016-Sep-29 15:32 158 1 gusting 2 22.8
2016-Sep-29 15:17 270 22.8
2016-Sep-29 15:02 180 22.8
2016-Sep-29 14:47 158 1 gusting 5 22.2
2016-Sep-29 14:32 135 1 gusting 3 22.8
2016-Sep-29 14:17 180 2 gusting 3 23.3
2016-Sep-29 14:02 158 22.8
2016-Sep-29 13:47 270 0 gusting 3 23.3
2016-Sep-29 13:32 270 0 gusting 2 23.3
2016-Sep-29 13:17 090 22.8
2016-Sep-29 13:02 180 0 gusting 3 22.2
2016-Sep-29 12:47 270 1 gusting 2 22.8
2016-Sep-29 12:32 180 22.8
2016-Sep-29 12:17 045 21.7
2016-Sep-29 12:02 158 1 gusting 3 20.6
2016-Sep-29 11:47 180 20.0
2016-Sep-29 11:32 068 18.9
2016-Sep-29 11:17 180 2 gusting 3 18.9
2016-Sep-29 11:02 270 1 gusting 3 17.8
2016-Sep-29 10:47 158 0 gusting 3 17.2
2016-Sep-29 10:32 180 0 gusting 2 16.7
2016-Sep-29 10:17 112 2 gusting 2 16.1
2016-Sep-29 10:02 270 0 gusting 3 15.6
2016-Sep-29 09:47 158 1 gusting 2 13.9
2016-Sep-29 09:32 270 1 gusting 3 12.8
2016-Sep-29 09:17 270 1 gusting 3 12.2
2016-Sep-29 09:02 270 2 gusting 3 11.7
2016-Sep-29 08:47 270 0 gusting 2 11.7
2016-Sep-29 08:32 270 10.0
2016-Sep-29 08:17 270 2 gusting 4 8.9
2016-Sep-29 08:02 270 0 gusting 2 8.9
2016-Sep-29 07:47 022 8.9
2016-Sep-29 07:32 180 0 gusting 2 8.3
2016-Sep-29 07:17 135 7.8
2016-Sep-29 07:02 022 0 gusting 1 7.2
2016-Sep-29 06:47 180 7.2
2016-Sep-29 06:32 135 0 gusting 1 7.2
2016-Sep-29 06:17 158 6.7
2016-Sep-29 06:02 158 6.7
2016-Sep-29 05:47 180 6.7
2016-Sep-29 05:32 270 6.1
2016-Sep-29 05:17 270 2 gusting 3 6.1
2016-Sep-29 05:02 180 0 gusting 2 6.1
2016-Sep-29 04:47 180 0 gusting 2 6.1
2016-Sep-29 04:32 180 1 gusting 1 6.1
2016-Sep-29 04:17 180 6.7
2016-Sep-29 04:02 180 0 gusting 0 6.7
2016-Sep-29 03:47 158 6.7
2016-Sep-29 03:32 158 6.7
2016-Sep-29 03:17 158 7.2
2016-Sep-29 03:02 158 7.2
2016-Sep-29 02:47 158 7.2
2016-Sep-29 02:32 158 7.2
2016-Sep-29 02:17 158 0 gusting 2 7.8
2016-Sep-29 02:02 158 1 gusting 2 7.8
2016-Sep-29 01:47 270 7.8
2016-Sep-29 01:32 270 8.3
2016-Sep-29 01:17 292 1 gusting 1 8.3
2016-Sep-29 01:02 158 8.3